FW7886 Weather Reports


Display with metric or nautical units.
time (UTC)temp
F
wind
direction
speed
MPH
gust
MPH
rain 1hr
in
rain 24hr
in
rain mn
in
humidity
%
barometer
mb
20260905040242 81 135 1.0 3.0 0.00 0.00 0.00 91 1012.7
20260905035741 81 135 0.0 1.0 0.00 0.00 0.00 92 1012.6
20260905035239 81 133 0.0 1.0 0.00 0.00 0.00 92 1012.7
20260905034737 81 133 0.0 1.0 0.00 0.00 0.00 91 1012.9
20260905034237 81 133 0.0 1.0 0.00 0.00 0.00 91 1012.9
20260905033732 81 133 0.0 1.0 0.00 0.00 0.00 91 1012.9
20260905033456 81 134 0.0 1.0 0.00 0.00 0.00 91 1012.9
20260905032732 81 134 0.0 1.0 0.00 0.00 0.00 91 1013.0
20260905032233 82 134 0.0 1.0 0.00 0.00 0.00 91 1013.0
20260905031733 82 134 0.0 1.0 0.00 0.00 0.00 91 1013.0
20260905031231 82 135 0.0 1.0 0.00 0.00 0.00 90 1013.1
20260905030729 82 135 0.0 1.0 0.00 0.00 0.00 90 1013.3
20260905030223 82 135 0.0 1.0 0.00 0.00 0.00 91 1013.3
20260905025717 82 135 0.0 1.0 0.00 0.00 0.00 91 1013.3
20260905025211 82 135 0.0 0.0 0.00 0.00 0.00 90 1013.3
20260905024705 82 135 0.0 1.0 0.00 0.00 0.00 90 1013.3
20260905024158 82 135 0.0 1.0 0.00 0.00 0.00 90 1013.4
20260905023653 82 135 0.0 1.0 0.00 0.00 0.00 90 1013.4
20260905023148 82 135 0.0 1.0 0.00 0.00 0.00 89 1013.3
20260905022900 82 135 0.0 1.0 0.00 0.00 0.00 89 1013.4
20260905022134 82 135 0.0 0.0 0.00 0.00 0.00 89 1013.4
20260905021629 82 135 0.0 0.0 0.00 0.00 0.00 89 1013.4
20260905021123 82 135 0.0 0.0 0.00 0.00 0.00 89 1013.4
20260905020850 82 135 0.0 0.0 0.00 0.00 0.00 88 1013.5
20260905020111 82 135 0.0 0.0 0.00 0.00 0.00 88 1013.4
20260905015605 82 135 0.0 0.0 0.00 0.00 0.00 88 1013.1
20260905015059 82 135 0.0 0.0 0.00 0.00 0.00 87 1013.2
20260905014554 82 135 0.0 0.0 0.00 0.00 0.00 87 1013.2
20260905014315 83 135 0.0 1.0 0.00 0.00 0.00 87 1013.0
20260905013541 83 135 0.0 1.0 0.00 0.00 0.00 86 1012.9
20260905013255 83 135 0.0 1.0 0.00 0.00 0.00 86 1012.8
20260905012753 83 135 0.0 1.0 0.00 0.00 0.00 85 1012.7
20260905012029 83 135 0.0 1.0 0.00 0.00 0.00 85 1012.6
20260905011751 83 135 0.0 1.0 0.00 0.00 0.00 85 1012.8
20260905011025 84 135 0.0 1.0 0.00 0.00 0.00 85 1012.8
20260905010525 84 135 0.0 1.0 0.00 0.00 0.00 84 1012.7
20260905010020 84 135 0.0 1.0 0.00 0.00 0.00 83 1012.7
20260905005521 84 135 0.0 0.0 0.00 0.00 0.00 83 1012.6
20260905005021 84 135 0.0 0.0 0.00 0.00 0.00 82 1012.6
20260905004518 84 135 0.0 0.0 0.00 0.00 0.00 82 1012.7
20260905004018 85 135 0.0 1.0 0.00 0.00 0.00 82 1012.7
20260905003517 85 135 0.0 1.0 0.00 0.00 0.00 82 1012.8
20260905003017 85 135 0.0 0.0 0.00 0.00 0.00 82 1012.9
20260905002515 85 135 0.0 0.0 0.00 0.00 0.00 82 1012.9
20260905002013 85 135 0.0 0.0 0.00 0.00 0.00 82 1012.7
20260905001511 85 135 0.0 1.0 0.00 0.00 0.00 81 1012.8
20260905001008 85 135 0.0 1.0 0.00 0.00 0.00 81 1012.8
20260905000725 85 135 0.0 1.0 0.00 0.00 0.00 81 1012.8
20260905000222 86 135 0.0 1.0 0.00 0.00 0.00 81 1013.0
20260904235506 86 135 0.0 1.0 0.00 0.00 0.00 80 1012.9
20260904235005 86 135 0.0 3.0 0.00 0.00 0.00 80 1012.6
20260904234504 86 135 0.0 3.0 0.00 0.00 0.00 79 1012.7
20260904234004 86 133 0.0 4.0 0.00 0.00 0.00 79 1012.7
20260904233719 87 132 0.0 4.0 0.00 0.00 0.00 79 1012.7
20260904232952 87 150 0.0 1.0 0.00 0.00 0.00 79 1012.7
20260904232445 87 150 0.0 3.0 0.00 0.00 0.00 78 1012.8
20260904232431 88 153 0.0 3.0 0.00 0.00 0.00 77 1012.5
20260904231703 88 153 0.0 3.0 0.00 0.00 0.00 77 1012.5
20260904230941 88 153 0.0 1.0 0.00 0.00 0.00 76 1012.7
20260904230700 88 153 0.0 1.0 0.00 0.00 0.00 76 1012.5
20260904225937 88 152 0.0 3.0 0.00 0.00 0.00 76 1012.4
20260904225658 89 152 0.0 3.0 0.00 0.00 0.00 75 1012.5
20260904224932 89 151 0.0 3.0 0.00 0.00 0.00 74 1012.4
20260904224650 90 151 0.0 3.0 0.00 0.00 0.00 72 1012.4
20260904223929 90 171 0.0 4.0 0.00 0.00 0.00 73 1012.5
20260904223425 90 177 0.0 4.0 0.00 0.00 0.00 72 1012.4
20260904222928 90 173 1.0 3.0 0.00 0.00 0.00 72 1012.3
20260904222424 90 254 1.0 4.0 0.00 0.00 0.00 72 1012.2
20260904221926 90 268 3.0 5.0 0.00 0.00 0.00 72 1012.1
20260904221424 90 266 3.0 5.0 0.00 0.00 0.00 71 1012.0
20260904220924 90 99 1.0 5.0 0.00 0.00 0.00 71 1012.1
20260904220424 90 242 3.0 6.0 0.00 0.00 0.00 70 1012.2
20260904215924 91 291 1.0 6.0 0.00 0.00 0.00 71 1012.2
20260904215423 90 269 1.0 4.0 0.00 0.00 0.00 73 1012.2
20260904214925 89 182 1.0 4.0 0.00 0.00 0.00 75 1012.3
20260904214419 89 200 1.0 4.0 0.00 0.00 0.00 75 1012.3
20260904213916 88 180 1.0 5.0 0.00 0.00 0.00 74 1012.6
20260904213416 89 301 1.0 5.0 0.00 0.00 0.00 76 1012.5
20260904213139 89 302 1.0 5.0 0.00 0.00 0.00 74 1012.5
20260904212414 90 214 1.0 4.0 0.00 0.00 0.00 73 1012.5
20260904211913 90 187 1.0 4.0 0.00 0.00 0.00 72 1012.5
20260904211635 90 172 0.0 4.0 0.00 0.00 0.00 73 1012.6
20260904210914 90 146 0.0 1.0 0.00 0.00 0.00 71 1012.6
20260904210413 90 147 1.0 3.0 0.00 0.00 0.00 71 1012.7
20260904205913 89 138 1.0 5.0 0.00 0.00 0.00 71 1012.7
20260904205413 89 153 1.0 5.0 0.00 0.00 0.00 71 1012.6
20260904204913 90 310 1.0 4.0 0.00 0.00 0.00 71 1012.6
20260904204411 90 171 1.0 4.0 0.00 0.00 0.00 71 1012.6
20260904203912 90 172 1.0 5.0 0.00 0.00 0.00 69 1012.7
20260904203411 90 130 1.0 5.0 0.00 0.00 0.00 69 1012.8
20260904202913 91 185 1.0 4.0 0.00 0.00 0.00 70 1012.9
20260904202411 91 284 1.0 4.0 0.00 0.00 0.00 68 1012.8
20260904201913 90 150 1.0 5.0 0.00 0.00 0.00 70 1012.8
20260904201413 90 290 3.0 5.0 0.00 0.00 0.00 74 1012.7
20260904201400 90 272 1.0 5.0 0.00 0.00 0.00 74 1012.8
20260904200411 90 274 1.0 6.0 0.00 0.00 0.00 75 1012.8
20260904200135 90 293 3.0 6.0 0.00 0.00 0.00 73 1013.0
20260904195903 89 189 3.0 5.0 0.00 0.00 0.00 76 1013.1
20260904195140 89 320 3.0 5.0 0.00 0.00 0.00 76 1013.2
20260904194411 89 282 3.0 5.0 0.00 0.00 0.00 75 1013.2
20260904193912 89 238 3.0 5.0 0.00 0.00 0.00 77 1013.3
20260904193413 89 255 3.0 5.0 0.00 0.00 0.00 76 1013.4
20260904192911 89 260 1.0 5.0 0.00 0.00 0.00 76 1013.4
20260904192411 89 298 1.0 5.0 0.00 0.00 0.00 76 1013.6
20260904191911 88 317 3.0 6.0 0.00 0.00 0.00 76 1013.7
20260904191408 88 315 1.0 6.0 0.00 0.00 0.00 75 1013.7
20260904190907 89 305 1.0 8.0 0.00 0.00 0.00 75 1013.8
20260904190409 89 310 1.0 9.0 0.00 0.00 0.00 75 1014.0
20260904185903 89 270 1.0 9.0 0.00 0.00 0.00 76 1013.9
20260904185355 89 201 3.0 8.0 0.00 0.00 0.00 75 1014.0
20260904185334 89 289 3.0 8.0 0.00 0.00 0.00 75 1014.0
20260904184824 89 319 1.0 8.0 0.00 0.00 0.00 75 1014.0
20260904184058 89 135 1.0 8.0 0.00 0.00 0.00 74 1014.2
20260904183329 89 260 1.0 5.0 0.00 0.00 0.00 72 1014.3
20260904182824 89 155 1.0 5.0 0.00 0.00 0.00 76 1014.3
20260904182318 88 150 3.0 10.0 0.00 0.00 0.00 75 1014.4
20260904181812 88 296 3.0 10.0 0.00 0.00 0.00 77 1014.3
20260904181306 88 326 3.0 9.0 0.00 0.00 0.00 77 1014.3
20260904180759 88 191 1.0 4.0 0.00 0.00 0.00 78 1014.3
20260904180252 88 138 1.0 4.0 0.00 0.00 0.00 79 1014.3
20260904175746 88 190 1.0 6.0 0.00 0.00 0.00 79 1014.4
20260904175239 87 149 3.0 6.0 0.00 0.00 0.00 80 1014.5
20260904174734 86 298 3.0 8.0 0.00 0.00 0.00 80 1014.4
20260904174227 87 310 3.0 8.0 0.00 0.00 0.00 78 1014.5
20260904173721 88 201 1.0 8.0 0.00 0.00 0.00 79 1014.4
20260904173215 88 305 1.0 3.0 0.00 0.00 0.00 77 1014.5
20260904172709 88 147 1.0 4.0 0.00 0.00 0.00 78 1014.6
20260904172203 88 299 1.0 4.0 0.00 0.00 0.00 77 1014.8
20260904171658 88 177 1.0 4.0 0.00 0.00 0.00 77 1014.8
20260904171152 88 260 1.0 6.0 0.00 0.00 0.00 78 1014.8
20260904170646 88 292 1.0 6.0 0.00 0.00 0.00 80 1014.9
20260904170139 87 153 3.0 6.0 0.00 0.00 0.00 80 1014.9
20260904165633 86 293 3.0 4.0 0.00 0.00 0.00 82 1015.0
20260904165127 85 232 3.0 4.0 0.00 0.00 0.00 84 1015.1
20260904164621 84 260 3.0 4.0 0.00 0.00 0.00 88 1015.2
20260904164115 83 304 1.0 4.0 0.00 0.00 0.00 84 1015.2
20260904163609 83 144 0.0 1.0 0.00 0.00 0.00 85 1015.3
20260904163103 83 144 0.0 3.0 0.00 0.00 0.00 86 1015.4
20260904162558 82 144 0.0 3.0 0.00 0.00 0.00 87 1015.4
20260904162052 82 144 0.0 3.0 0.00 0.00 0.00 87 1015.4
20260904161546 81 143 0.0 3.0 0.00 0.00 0.00 87 1015.4
20260904161039 81 175 0.0 3.0 0.00 0.00 0.00 87 1015.5
20260904160534 81 187 0.0 3.0 0.00 0.00 0.00 87 1015.4
20260904160027 81 173 1.0 5.0 0.00 0.00 0.00 88 1015.4
20260904155741 81 159 1.0 5.0 0.00 0.00 0.00 88 1015.6
20260904155016 81 180 1.0 4.0 0.00 0.00 0.00 87 1015.4
20260904154510 81 258 1.0 5.0 0.00 0.00 0.00 88 1015.4
20260904154004 81 275 1.0 6.0 0.00 0.00 0.00 86 1015.4
20260904153458 81 322 1.0 6.0 0.00 0.00 0.00 87 1015.4
20260904152951 81 142 0.0 5.0 0.00 0.00 0.00 87 1015.4
20260904152932 81 261 0.0 4.0 0.00 0.00 0.00 88 1015.4
20260904151940 81 172 0.0 4.0 0.00 0.00 0.00 90 1015.2
20260904151433 81 160 0.0 4.0 0.00 0.00 0.00 90 1015.3
20260904150927 81 283 1.0 5.0 0.00 0.00 0.00 90 1015.3
20260904150642 81 128 1.0 5.0 0.00 0.00 0.00 92 1015.1
20260904145915 81 132 1.0 5.0 0.00 0.00 0.00 92 1015.1
20260904145409 80 128 1.0 5.0 0.00 0.00 0.00 93 1015.0
20260904144903 80 248 1.0 5.0 0.00 0.00 0.00 93 1015.0
20260904144357 80 131 1.0 4.0 0.00 0.00 0.00 95 1015.1
20260904143852 80 159 1.0 4.0 0.00 0.00 0.00 95 1015.1
20260904143346 80 259 1.0 4.0 0.00 0.00 0.00 95 1015.0
20260904142840 80 95 1.0 4.0 0.00 0.00 0.00 95 1014.9
20260904142339 80 125 0.0 3.0 0.00 0.00 0.00 96 1014.9
20260904141839 80 182 0.0 3.0 0.00 0.00 0.00 96 1014.6
20260904141341 80 146 0.0 4.0 0.00 0.00 0.00 96 1014.7
20260904140839 79 164 0.0 4.0 0.00 0.00 0.00 97 1014.6
20260904140339 79 144 1.0 4.0 0.00 0.00 0.00 97 1014.5
20260904135839 79 78 1.0 4.0 0.00 0.00 0.00 97 1014.5
20260904135337 79 249 0.0 3.0 0.00 0.00 0.00 97 1014.5
20260904134836 79 283 0.0 3.0 0.00 0.00 0.00 98 1014.6
20260904134333 79 305 0.0 1.0 0.00 0.00 0.00 98 1014.5
20260904133835 79 305 0.0 3.0 0.00 0.00 0.00 98 1014.5
20260904133332 79 305 0.0 3.0 0.00 0.00 0.00 99 1014.5
20260904132830 78 173 0.0 0.0 0.00 0.00 0.00 99 1014.3
20260904132329 78 114 0.0 1.0 0.00 0.00 0.00 99 1014.3
20260904131827 78 112 0.0 1.0 0.00 0.00 0.00 99 1014.2
20260904131327 78 113 0.0 0.0 0.00 0.00 0.00 99 1014.3
20260904130829 78 112 0.0 0.0 0.00 0.00 0.00 99 1014.3
20260904130322 78 112 0.0 0.0 0.00 0.00 0.00 100 1014.3
20260904125820 78 112 0.0 0.0 0.00 0.00 0.00 100 1014.3
20260904125320 78 112 0.0 0.0 0.00 0.00 0.00 100 1014.2
20260904124818 78 113 0.0 0.0 0.00 0.00 0.00 100 1014.1
20260904124315 78 112 0.0 0.0 0.00 0.00 0.00 100 1014.0
20260904124043 77 112 0.0 0.0 0.00 0.00 0.00 100 1014.0
20260904123312 77 112 0.0 0.0 0.00 0.00 0.00 100 1014.0
20260904122811 77 113 0.0 0.0 0.00 0.00 0.00 100 1014.0
20260904122310 77 111 0.0 0.0 0.00 0.00 0.00 100 1013.9
20260904121806 77 111 0.0 0.0 0.00 0.00 0.00 100 1013.8
20260904121308 77 111 0.0 0.0 0.00 0.00 0.00 100 1013.7
20260904120809 77 111 0.0 0.0 0.00 0.00 0.00 100 1013.6
20260904120302 77 111 0.0 0.0 0.00 0.00 0.00 100 1013.5
20260904115802 77 111 0.0 0.0 0.00 0.00 0.00 100 1013.4
20260904115520 77 111 0.0 0.0 0.00 0.00 0.00 100 1013.5
20260904115403 77 111 0.0 0.0 0.00 0.00 0.00 100 1013.4
20260904114739 77 111 0.0 0.0 0.00 0.00 0.00 100 1013.6
20260904113757 77 111 0.0 0.0 0.00 0.00 0.00 100 1013.6
20260904113518 76 111 0.0 0.0 0.00 0.00 0.00 100 1013.5
20260904113026 76 111 0.0 0.0 0.00 0.00 0.00 100 1013.6
20260904112256 76 111 0.0 0.0 0.00 0.00 0.00 100 1013.5
20260904111756 76 111 0.0 0.0 0.00 0.00 0.00 100 1013.6
20260904111256 76 111 0.0 0.0 0.00 0.00 0.00 100 1013.5
20260904110758 76 111 0.0 0.0 0.00 0.00 0.00 100 1013.5
20260904110258 76 111 0.0 0.0 0.00 0.00 0.00 100 1013.4
20260904105757 76 111 0.0 0.0 0.00 0.00 0.00 100 1013.4
20260904105257 76 111 0.0 0.0 0.00 0.00 0.00 100 1013.4
20260904104757 76 111 0.0 0.0 0.00 0.00 0.00 100 1013.3
20260904104258 76 111 0.0 0.0 0.00 0.00 0.00 100 1013.3
20260904104237 76 111 0.0 0.0 0.00 0.00 0.00 100 1013.2
20260904103519 76 111 0.0 0.0 0.00 0.00 0.00 100 1013.2
20260904102757 76 111 0.0 0.0 0.00 0.00 0.00 100 1013.2
20260904102258 76 111 0.0 0.0 0.00 0.00 0.00 100 1013.2
20260904101755 76 111 0.0 0.0 0.00 0.00 0.00 100 1013.2
20260904101511 77 111 0.0 0.0 0.00 0.00 0.00 100 1013.1
20260904100743 77 111 0.0 0.0 0.00 0.00 0.00 100 1013.1
20260904100236 77 111 0.0 0.0 0.00 0.00 0.00 100 1013.0
20260904095731 77 111 0.0 0.0 0.00 0.00 0.00 100 1012.9
20260904095225 77 111 0.0 0.0 0.00 0.00 0.00 100 1012.9
20260904094719 77 111 0.0 0.0 0.00 0.00 0.00 100 1013.0
20260904094213 77 111 0.0 0.0 0.00 0.00 0.00 100 1013.0
20260904093707 77 111 0.0 0.0 0.00 0.00 0.00 100 1012.9
20260904093201 77 111 0.0 0.0 0.00 0.00 0.00 100 1013.0
20260904092655 77 111 0.0 0.0 0.00 0.00 0.00 100 1013.0
20260904092149 77 111 0.0 0.0 0.00 0.00 0.00 99 1013.0
20260904091643 77 111 0.0 0.0 0.00 0.00 0.00 99 1013.2
20260904091137 77 111 0.0 0.0 0.00 0.00 0.00 99 1013.4
20260904090631 77 111 0.0 0.0 0.00 0.00 0.00 99 1013.3
20260904090125 77 111 0.0 0.0 0.00 0.00 0.00 100 1013.2
20260904085620 77 111 0.0 0.0 0.00 0.00 0.00 100 1013.3
20260904085330 77 111 0.0 0.0 0.00 0.00 0.00 100 1013.2
20260904084607 77 111 0.0 0.0 0.00 0.00 0.00 100 1013.3
20260904084551 77 111 0.0 0.0 0.00 0.00 0.00 99 1013.2
20260904083555 77 111 0.0 0.0 0.00 0.00 0.00 99 1013.1
20260904083049 77 111 0.0 0.0 0.00 0.00 0.00 99 1013.1
20260904083022 77 111 0.0 0.0 0.00 0.00 0.00 99 1013.0
20260904082037 77 111 0.0 0.0 0.00 0.00 0.00 99 1013.1
20260904081531 77 111 0.0 0.0 0.00 0.00 0.00 99 1013.0
20260904081025 77 111 0.0 0.0 0.00 0.00 0.00 99 1013.1
20260904080519 78 111 0.0 0.0 0.00 0.00 0.00 99 1013.2
20260904080013 78 111 0.0 0.0 0.00 0.00 0.00 99 1013.1
20260904075507 78 111 0.0 0.0 0.00 0.00 0.00 99 1013.1
20260904075001 78 111 0.0 0.0 0.00 0.00 0.00 99 1013.1
20260904074715 78 111 0.0 0.0 0.00 0.00 0.00 99 1013.1
20260904073949 78 111 0.0 0.0 0.00 0.00 0.00 99 1013.1
20260904073443 78 111 0.0 0.0 0.00 0.00 0.00 99 1013.2
20260904072937 78 111 0.0 0.0 0.00 0.00 0.00 99 1013.2
20260904072911 78 111 0.0 0.0 0.00 0.00 0.00 99 1013.1
20260904071925 78 111 0.0 0.0 0.00 0.00 0.00 99 1013.3
20260904071419 78 111 0.0 0.0 0.00 0.00 0.00 99 1013.3
20260904070913 78 111 0.0 0.0 0.00 0.00 0.00 99 1013.3
20260904070407 78 111 0.0 0.0 0.00 0.00 0.00 99 1013.3
20260904065901 78 111 0.0 0.0 0.00 0.00 0.00 99 1013.3
20260904065355 78 111 0.0 0.0 0.00 0.00 0.00 99 1013.2
20260904064849 78 111 0.0 0.0 0.00 0.00 0.00 99 1013.2
20260904064343 78 111 0.0 0.0 0.00 0.00 0.00 99 1013.2
20260904063837 78 111 0.0 0.0 0.00 0.00 0.00 99 1013.3
20260904063550 78 111 0.0 0.0 0.00 0.00 0.00 99 1013.2
20260904062825 78 111 0.0 0.0 0.00 0.00 0.00 99 1013.3
20260904062319 78 111 0.0 0.0 0.00 0.00 0.00 99 1013.4
20260904062040 78 111 0.0 0.0 0.00 0.00 0.00 99 1013.2
20260904061307 78 111 0.0 0.0 0.00 0.00 0.00 99 1013.2
20260904060800 78 111 0.0 0.0 0.00 0.00 0.00 99 1013.2
20260904060256 78 111 0.0 0.0 0.00 0.00 0.00 99 1013.2
20260904055749 78 111 0.0 0.0 0.00 0.00 0.00 99 1013.2
20260904055506 78 111 0.0 0.0 0.00 0.00 0.00 99 1013.1
20260904054744 78 111 0.0 0.0 0.00 0.00 0.00 99 1013.0
20260904054246 78 111 0.0 0.0 0.00 0.00 0.00 99 1013.1
20260904053745 78 111 0.0 0.0 0.00 0.00 0.00 98 1013.1
20260904053244 78 111 0.0 0.0 0.00 0.00 0.00 98 1013.0
20260904053236 78 111 0.0 0.0 0.00 0.00 0.00 99 1013.0
20260904052245 78 111 0.0 0.0 0.00 0.00 0.00 98 1013.0
20260904052013 79 111 0.0 0.0 0.00 0.00 0.00 98 1013.2
20260904051245 78 111 0.0 0.0 0.00 0.00 0.00 98 1013.1
20260904050743 78 111 0.0 0.0 0.00 0.00 0.00 98 1013.0
20260904050241 78 111 0.0 0.0 0.00 0.00 0.00 98 1013.1
20260904045740 78 111 0.0 0.0 0.00 0.00 0.00 98 1013.0
20260904045240 78 111 0.0 0.0 0.00 0.00 0.00 98 1013.1
20260904045006 78 111 0.0 0.0 0.00 0.00 0.00 98 1013.1
20260904044240 78 111 0.0 0.0 0.00 0.00 0.00 98 1013.1
20260904044218 78 111 0.0 0.0 0.00 0.00 0.00 97 1013.1
20260904043237 78 111 0.0 0.0 0.00 0.00 0.00 97 1013.0
20260904042736 79 111 0.0 0.0 0.00 0.00 0.00 97 1013.1
20260904042233 79 111 0.0 0.0 0.00 0.00 0.00 96 1013.1
20260904041727 79 111 0.0 1.0 0.00 0.00 0.00 96 1013.2
20260904041221 79 111 0.0 1.0 0.00 0.00 0.00 96 1013.2
20260904040943 80 104 0.0 0.0 0.00 0.00 0.00 96 1013.1